MSR46E LGTS-EDDL

Flight info

Callsign MSR46E
Flight time 2h 29m
Altitude 36000
Route FSK UL608 DISOR DCT LONTA UL608 DOLEV DCT MITNO DCT AGLIB DCT ZAG DCT PETOV DCT RENKA DCT RUDNO L604 RODIS DCT SULUS T852 TESDU DCT AMETU T852 TINSA T854 DOMUX DOMUX1A
Aircraft B738/M-SDE2E3FGHIRWXY/LB1

Departure

Time 2026-05-06 19:21
Airport Thessaloniki Macedonia International Airport (LGTS)

Arrival

Time 2026-05-06 21:51
Airport Düsseldorf Airport (EDDL)
Time Latitude Longitude Altitude Speed Heading
2026-05-06 19:07 40.52254 22.97701 27 ft 0 kts 45°
2026-05-06 19:11 40.52249 22.97695 27 ft 0 kts 45°
2026-05-06 19:15 40.52233 22.97674 27 ft 4 kts 45°
2026-05-06 19:15 40.52214 22.97650 27 ft 4 kts 41°
2026-05-06 19:15 40.52193 22.97635 27 ft 4 kts 359°
2026-05-06 19:15 40.52170 22.97643 27 ft 2 kts 328°
2026-05-06 19:16 40.52169 22.97644 27 ft 1 kts 328°
2026-05-06 19:17 40.52169 22.97643 27 ft 1 kts 328°
2026-05-06 19:17 40.52212 22.97600 27 ft 15 kts 315°
2026-05-06 19:17 40.52290 22.97497 27 ft 16 kts 315°
2026-05-06 19:17 40.52369 22.97396 27 ft 15 kts 315°
2026-05-06 19:18 40.52391 22.97269 27 ft 15 kts 259°
2026-05-06 19:18 40.52341 22.97167 27 ft 14 kts 186°
2026-05-06 19:18 40.52246 22.97192 27 ft 14 kts 166°
2026-05-06 19:18 40.52150 22.97223 27 ft 15 kts 166°
2026-05-06 19:19 40.52036 22.97259 27 ft 22 kts 166°
2026-05-06 19:19 40.51846 22.97320 27 ft 30 kts 167°
2026-05-06 19:19 40.51649 22.97380 28 ft 28 kts 166°
2026-05-06 19:19 40.51462 22.97441 28 ft 27 kts 166°
2026-05-06 19:20 40.51288 22.97496 28 ft 25 kts 166°
2026-05-06 19:20 40.51123 22.97548 28 ft 23 kts 166°
2026-05-06 19:20 40.50975 22.97551 27 ft 22 kts 230°
2026-05-06 19:20 40.51001 22.97406 27 ft 16 kts 337°
2026-05-06 19:21 40.51148 22.97359 28 ft 45 kts 346°
2026-05-06 19:21 40.51700 22.97187 29 ft 118 kts 347°
2026-05-06 19:21 40.52712 22.96859 54 ft 175 kts 345°
2026-05-06 19:21 40.53968 22.96443 651 ft 191 kts 346°
2026-05-06 19:22 40.55216 22.95962 1594 ft 187 kts 326°
2026-05-06 19:22 40.55990 22.94588 2154 ft 199 kts 279°
2026-05-06 19:22 40.56145 22.92678 2407 ft 223 kts 283°
2026-05-06 19:22 40.57075 22.90980 2653 ft 247 kts 325°
2026-05-06 19:23 40.58750 22.90112 2926 ft 269 kts 342°
2026-05-06 19:23 40.60524 22.89211 3580 ft 275 kts 333°
2026-05-06 19:23 40.62192 22.88049 4544 ft 271 kts 329°
2026-05-06 19:23 40.63806 22.86764 5411 ft 272 kts 327°
2026-05-06 19:24 40.65414 22.85423 6232 ft 273 kts 326°
2026-05-06 19:24 40.67098 22.84300 6990 ft 277 kts 344°
2026-05-06 19:24 40.69037 22.84089 7751 ft 281 kts
2026-05-06 19:24 40.70920 22.84702 8511 ft 285 kts 21°
2026-05-06 19:25 40.72625 22.86110 9267 ft 290 kts 41°
2026-05-06 19:25 40.74051 22.87977 10038 ft 293 kts 45°
2026-05-06 19:25 40.75481 22.89962 10485 ft 307 kts 45°
2026-05-06 19:25 40.76986 22.92092 10647 ft 330 kts 46°
2026-05-06 19:26 40.78603 22.94396 10845 ft 351 kts 46°
2026-05-06 19:26 40.80449 22.96535 11291 ft 359 kts 29°
2026-05-06 19:26 40.82770 22.97734 11965 ft 359 kts
2026-05-06 19:26 40.85260 22.98016 12679 ft 359 kts
2026-05-06 19:27 40.87777 22.98116 13345 ft 363 kts 360°
2026-05-06 19:27 40.90284 22.98192 13969 ft 368 kts 360°
2026-05-06 19:27 40.92872 22.98281 14590 ft 371 kts
2026-05-06 19:27 40.95435 22.98387 15242 ft 372 kts
2026-05-06 19:28 40.98049 22.98508 15882 ft 375 kts
2026-05-06 19:28 41.00650 22.98636 16469 ft 378 kts
2026-05-06 19:28 41.03300 22.98768 17081 ft 381 kts 360°
2026-05-06 19:28 41.05932 22.98890 17675 ft 383 kts 357°
2026-05-06 19:29 41.08570 22.98337 18225 ft 382 kts 338°
2026-05-06 19:29 41.10972 22.96826 18783 ft 380 kts 325°
2026-05-06 19:29 41.12939 22.94545 19298 ft 379 kts 311°
2026-05-06 19:29 41.14667 22.91877 19848 ft 380 kts 308°
2026-05-06 19:30 41.16330 22.89172 20342 ft 383 kts 308°
2026-05-06 19:30 41.18013 22.86427 20845 ft 385 kts 308°
2026-05-06 19:30 41.19730 22.83663 21342 ft 387 kts 309°
2026-05-06 19:30 41.21451 22.80929 21839 ft 389 kts 309°
2026-05-06 19:31 41.23211 22.78150 22324 ft 391 kts 309°
2026-05-06 19:31 41.24953 22.75403 22785 ft 393 kts 309°
2026-05-06 19:31 41.28628 22.69942 23669 ft 398 kts 311°
2026-05-06 19:32 41.30503 22.67234 24044 ft 400 kts 311°
2026-05-06 19:32 41.32394 22.64501 24426 ft 402 kts 311°
2026-05-06 19:32 41.34290 22.61752 24808 ft 403 kts 311°
2026-05-06 19:32 41.36199 22.58971 25163 ft 406 kts 311°
2026-05-06 19:33 41.38098 22.56194 25522 ft 407 kts 311°
2026-05-06 19:33 41.40007 22.53395 25864 ft 409 kts 311°
2026-05-06 19:33 41.41913 22.50594 26187 ft 411 kts 311°
2026-05-06 19:33 41.43843 22.47754 26543 ft 413 kts 311°
2026-05-06 19:34 41.45757 22.44935 26871 ft 415 kts 311°
2026-05-06 19:34 41.47710 22.42055 27194 ft 417 kts 311°
2026-05-06 19:34 41.49654 22.39185 27507 ft 419 kts 311°
2026-05-06 19:34 41.51624 22.36275 27821 ft 421 kts 311°
2026-05-06 19:35 41.53580 22.33382 28124 ft 423 kts 311°
2026-05-06 19:35 41.55543 22.30476 28410 ft 425 kts 311°
2026-05-06 19:35 41.57535 22.27524 28698 ft 426 kts 311°
2026-05-06 19:35 41.59511 22.24593 28981 ft 428 kts 311°
2026-05-06 19:36 41.61512 22.21623 29257 ft 430 kts 311°
2026-05-06 19:36 41.63533 22.18619 29518 ft 432 kts 311°
2026-05-06 19:36 41.65529 22.15650 29780 ft 433 kts 311°
2026-05-06 19:36 41.67547 22.12645 30028 ft 435 kts 311°
2026-05-06 19:37 41.69580 22.09614 30249 ft 437 kts 311°
2026-05-06 19:37 41.71596 22.06605 30472 ft 438 kts 311°
2026-05-06 19:37 41.73642 22.03548 30715 ft 438 kts 311°
2026-05-06 19:37 41.75656 22.00538 31013 ft 437 kts 311°
2026-05-06 19:38 41.77693 21.97489 31371 ft 435 kts 311°
2026-05-06 19:38 41.79694 21.94491 31682 ft 433 kts 311°
2026-05-06 19:38 41.81717 21.91457 31963 ft 433 kts 311°
2026-05-06 19:38 41.83701 21.88477 32240 ft 432 kts 311°
2026-05-06 19:39 41.85709 21.85459 32549 ft 431 kts 311°
2026-05-06 19:39 41.87707 21.82453 32848 ft 429 kts 310°
2026-05-06 19:39 41.89676 21.79487 33135 ft 428 kts 310°
2026-05-06 19:39 41.91666 21.76487 33419 ft 427 kts 310°
2026-05-06 19:40 41.93629 21.73524 33702 ft 426 kts 310°
2026-05-06 19:40 41.95604 21.70542 33972 ft 426 kts 310°
2026-05-06 19:40 41.97553 21.67595 34232 ft 424 kts 310°
2026-05-06 19:40 41.99518 21.64620 34426 ft 424 kts 310°
2026-05-06 19:41 42.01469 21.61664 34582 ft 425 kts 310°
2026-05-06 19:41 42.03438 21.58677 34789 ft 425 kts 310°
2026-05-06 19:41 42.05403 21.55693 34998 ft 424 kts 310°
2026-05-06 19:41 42.07351 21.52732 35195 ft 423 kts 310°
2026-05-06 19:42 42.09286 21.49788 35360 ft 424 kts 310°
2026-05-06 19:42 42.11245 21.46803 35536 ft 423 kts 310°
2026-05-06 19:42 42.13199 21.43827 35731 ft 423 kts 310°
2026-05-06 19:42 42.15125 21.40887 35895 ft 422 kts 310°
2026-05-06 19:43 42.17071 21.37896 36004 ft 423 kts 309°
2026-05-06 19:43 42.18980 21.34898 36017 ft 425 kts 309°
2026-05-06 19:43 42.22835 21.28766 36039 ft 428 kts 309°
2026-05-06 19:44 42.26693 21.22618 36038 ft 430 kts 309°
2026-05-06 19:44 42.30542 21.16486 36038 ft 431 kts 309°
2026-05-06 19:45 42.34432 21.10286 36045 ft 430 kts 309°
2026-05-06 19:45 42.38294 21.04118 36048 ft 429 kts 308°
2026-05-06 19:46 42.42127 20.97985 36045 ft 428 kts 308°
2026-05-06 19:46 42.45974 20.91815 36045 ft 427 kts 308°
2026-05-06 19:47 42.49780 20.85698 36049 ft 425 kts 308°
2026-05-06 19:47 42.53571 20.79592 36051 ft 424 kts 308°
2026-05-06 19:48 42.57353 20.73489 36045 ft 422 kts 308°
2026-05-06 19:48 42.61127 20.67385 36042 ft 421 kts 308°
2026-05-06 19:49 42.64869 20.61322 36037 ft 420 kts 308°
2026-05-06 19:49 42.68613 20.55241 36040 ft 419 kts 308°
2026-05-06 19:50 42.72365 20.49136 36038 ft 419 kts 308°
2026-05-06 19:50 42.76085 20.43068 36039 ft 418 kts 307°
2026-05-06 19:51 42.79793 20.37010 36035 ft 417 kts 307°
2026-05-06 19:51 42.83554 20.31001 36043 ft 418 kts 311°
2026-05-06 19:52 42.88020 20.25820 36048 ft 421 kts 317°
2026-05-06 19:52 42.92571 20.20807 36043 ft 421 kts 317°
2026-05-06 19:53 42.97110 20.15762 36041 ft 421 kts 317°
2026-05-06 19:53 43.01633 20.10694 36035 ft 422 kts 316°
2026-05-06 19:54 43.06149 20.05613 36038 ft 422 kts 316°
2026-05-06 19:54 43.10700 20.00481 36031 ft 422 kts 316°
2026-05-06 19:55 43.15202 19.95396 36029 ft 422 kts 316°
2026-05-06 19:55 43.19733 19.90267 36026 ft 422 kts 316°
2026-05-06 19:56 43.24253 19.85141 36025 ft 422 kts 316°
2026-05-06 19:56 43.28791 19.79984 36032 ft 422 kts 316°
2026-05-06 19:57 43.33291 19.74860 36031 ft 423 kts 316°
2026-05-06 19:57 43.37843 19.69667 36014 ft 423 kts 316°
2026-05-06 19:58 43.42362 19.64501 36019 ft 423 kts 316°
2026-05-06 19:58 43.46871 19.59336 36010 ft 422 kts 315°
2026-05-06 19:59 43.51372 19.54170 36011 ft 422 kts 315°
2026-05-06 19:59 43.55879 19.48985 36011 ft 422 kts 315°
2026-05-06 20:00 43.60381 19.43797 36014 ft 423 kts 315°
2026-05-06 20:00 43.64905 19.38572 36013 ft 423 kts 315°
2026-05-06 20:01 43.69409 19.33359 36004 ft 424 kts 315°
2026-05-06 20:01 43.73907 19.28145 36008 ft 424 kts 315°
2026-05-06 20:02 43.78353 19.22753 35987 ft 420 kts 309°
2026-05-06 20:02 43.82336 19.16865 36007 ft 419 kts 308°
2026-05-06 20:03 43.86293 19.10921 36007 ft 420 kts 308°
2026-05-06 20:03 43.90263 19.04978 36018 ft 421 kts 308°
2026-05-06 20:04 43.93575 19.00029 35998 ft 422 kts 308°
2026-05-06 20:04 43.97577 18.94051 35995 ft 423 kts 308°
2026-05-06 20:05 44.01585 18.88053 36004 ft 425 kts 308°
2026-05-06 20:05 44.05595 18.82040 36006 ft 425 kts 308°
2026-05-06 20:06 44.09605 18.76015 35994 ft 425 kts 308°
2026-05-06 20:06 44.13610 18.69981 35989 ft 426 kts 308°
2026-05-06 20:07 44.17643 18.63893 35983 ft 426 kts 308°
2026-05-06 20:07 44.21640 18.57846 35971 ft 426 kts 308°
2026-05-06 20:08 44.25661 18.51750 35974 ft 426 kts 308°
2026-05-06 20:08 44.29668 18.45663 35974 ft 426 kts 308°
2026-05-06 20:09 44.33666 18.39575 35975 ft 426 kts 308°
2026-05-06 20:09 44.37663 18.33474 35976 ft 426 kts 308°
2026-05-06 20:10 44.41678 18.27334 35976 ft 427 kts 307°
2026-05-06 20:10 44.45673 18.21208 35959 ft 428 kts 308°
2026-05-06 20:11 44.49678 18.15058 35962 ft 427 kts 307°
2026-05-06 20:11 44.53669 18.08914 35955 ft 427 kts 307°
2026-05-06 20:12 44.57665 18.02749 35960 ft 427 kts 307°
2026-05-06 20:12 44.61650 17.96587 35947 ft 427 kts 307°
2026-05-06 20:13 44.65653 17.90384 35946 ft 427 kts 307°
2026-05-06 20:13 44.69630 17.84207 35953 ft 427 kts 307°
2026-05-06 20:14 44.73611 17.78010 35952 ft 427 kts 307°
2026-05-06 20:14 44.77585 17.71810 35945 ft 428 kts 307°
2026-05-06 20:15 44.81579 17.65566 35941 ft 428 kts 307°
2026-05-06 20:15 44.85553 17.59339 35944 ft 429 kts 307°
2026-05-06 20:16 44.89532 17.53089 35937 ft 430 kts 307°
2026-05-06 20:16 44.93518 17.46813 35940 ft 430 kts 307°
2026-05-06 20:17 44.97502 17.40528 35944 ft 431 kts 307°
2026-05-06 20:17 45.01513 17.34186 35938 ft 431 kts 307°
2026-05-06 20:18 45.05503 17.27862 35942 ft 432 kts 307°
2026-05-06 20:18 45.09500 17.21512 35940 ft 432 kts 307°
2026-05-06 20:19 45.13539 17.15217 35935 ft 436 kts 311°
2026-05-06 20:19 45.18295 17.09783 35934 ft 441 kts 317°
2026-05-06 20:20 45.23196 17.04523 35934 ft 438 kts 317°
2026-05-06 20:20 45.25607 17.01919 36055 ft 438 kts 317°
2026-05-06 20:20 45.28029 16.99286 36320 ft 435 kts 317°
2026-05-06 20:21 45.30402 16.96690 36608 ft 433 kts 317°
2026-05-06 20:21 45.32790 16.94068 36879 ft 431 kts 317°
2026-05-06 20:21 45.35137 16.91483 37073 ft 430 kts 317°
2026-05-06 20:21 45.37525 16.88849 37213 ft 431 kts 317°
2026-05-06 20:22 45.39873 16.86254 37358 ft 431 kts 317°
2026-05-06 20:22 45.42239 16.83639 37545 ft 430 kts 317°
2026-05-06 20:22 45.44613 16.81013 37738 ft 430 kts 317°
2026-05-06 20:22 45.46955 16.78420 37884 ft 429 kts 317°
2026-05-06 20:23 45.51683 16.73175 37926 ft 433 kts 317°
2026-05-06 20:23 45.56486 16.67834 37937 ft 438 kts 317°
2026-05-06 20:24 45.61285 16.62487 37930 ft 442 kts 317°
2026-05-06 20:24 45.66155 16.57051 37930 ft 444 kts 317°
2026-05-06 20:25 45.71021 16.51607 37929 ft 446 kts 317°
2026-05-06 20:25 45.75932 16.46099 37932 ft 447 kts 317°
2026-05-06 20:26 45.80824 16.40600 37928 ft 448 kts 317°
2026-05-06 20:26 45.85721 16.35083 37931 ft 448 kts 317°
2026-05-06 20:27 45.90712 16.29704 37915 ft 453 kts 324°
2026-05-06 20:27 45.96224 16.25296 37926 ft 455 kts 326°
2026-05-06 20:28 46.01780 16.20985 37922 ft 455 kts 326°
2026-05-06 20:28 46.07364 16.16575 37917 ft 456 kts 326°
2026-05-06 20:29 46.12913 16.12140 37909 ft 456 kts 326°
2026-05-06 20:29 46.18459 16.07691 37916 ft 457 kts 325°
2026-05-06 20:30 46.26806 16.00982 37907 ft 459 kts 325°
2026-05-06 20:31 46.32316 15.96386 37900 ft 456 kts 321°
2026-05-06 20:31 46.37516 15.91115 37906 ft 454 kts 318°
2026-05-06 20:32 46.42602 15.85736 37917 ft 454 kts 318°
2026-05-06 20:32 46.47718 15.80361 37918 ft 455 kts 319°
2026-05-06 20:33 46.52878 15.74984 37906 ft 456 kts 319°
2026-05-06 20:33 46.58001 15.69656 37920 ft 456 kts 319°
2026-05-06 20:34 46.63174 15.64266 37902 ft 456 kts 319°
2026-05-06 20:34 46.68321 15.58888 37897 ft 455 kts 319°
2026-05-06 20:35 46.73444 15.53522 37882 ft 455 kts 319°
2026-05-06 20:35 46.78594 15.48112 37894 ft 455 kts 318°
2026-05-06 20:36 46.83729 15.42706 37888 ft 455 kts 318°
2026-05-06 20:36 46.88843 15.37309 37893 ft 456 kts 318°
2026-05-06 20:37 46.93978 15.31876 37890 ft 456 kts 318°
2026-05-06 20:37 46.99123 15.26421 37886 ft 457 kts 318°
2026-05-06 20:38 47.04267 15.20953 37894 ft 458 kts 318°
2026-05-06 20:38 47.09424 15.15457 37888 ft 459 kts 318°
2026-05-06 20:39 47.14589 15.09940 37907 ft 459 kts 318°
2026-05-06 20:39 47.19754 15.04409 37877 ft 460 kts 317°
2026-05-06 20:40 47.24925 14.98858 37891 ft 461 kts 317°
2026-05-06 20:40 47.30103 14.93286 37897 ft 462 kts 317°
2026-05-06 20:41 47.35272 14.87710 37903 ft 462 kts 317°
2026-05-06 20:41 47.40438 14.82124 37894 ft 461 kts 317°
2026-05-06 20:42 47.45612 14.76515 37886 ft 462 kts 317°
2026-05-06 20:42 47.50819 14.70855 37882 ft 462 kts 317°
2026-05-06 20:43 47.55983 14.65227 37883 ft 463 kts 317°
2026-05-06 20:43 47.61156 14.59577 37878 ft 463 kts 317°
2026-05-06 20:44 47.66340 14.53899 37875 ft 463 kts 317°
2026-05-06 20:44 47.71518 14.48214 37885 ft 464 kts 317°
2026-05-06 20:45 47.76704 14.42508 37864 ft 464 kts 317°
2026-05-06 20:45 47.81918 14.36755 37874 ft 464 kts 317°
2026-05-06 20:46 47.87069 14.31056 37867 ft 464 kts 317°
2026-05-06 20:46 47.92265 14.25293 37869 ft 464 kts 317°
2026-05-06 20:47 47.97437 14.19542 37862 ft 464 kts 317°
2026-05-06 20:47 48.02607 14.13778 37866 ft 464 kts 317°
2026-05-06 20:48 48.07767 14.08010 37865 ft 464 kts 317°
2026-05-06 20:48 48.12926 14.02229 37867 ft 465 kts 317°
2026-05-06 20:49 48.18100 13.96416 37868 ft 466 kts 317°
2026-05-06 20:49 48.23285 13.90575 37874 ft 467 kts 317°
2026-05-06 20:50 48.28505 13.84681 37874 ft 468 kts 317°
2026-05-06 20:50 48.33694 13.78805 37881 ft 470 kts 317°
2026-05-06 20:51 48.38936 13.72853 37887 ft 471 kts 317°
2026-05-06 20:51 48.44149 13.66920 37881 ft 473 kts 317°
2026-05-06 20:52 48.49402 13.60924 37883 ft 474 kts 316°
2026-05-06 20:52 48.54662 13.54904 37885 ft 476 kts 316°
2026-05-06 20:53 48.59960 13.48793 37868 ft 476 kts 315°
2026-05-06 20:53 48.65034 13.42448 37869 ft 475 kts 313°
2026-05-06 20:54 48.70061 13.35982 37868 ft 476 kts 313°
2026-05-06 20:54 48.75117 13.29515 37866 ft 476 kts 314°
2026-05-06 20:55 48.80224 13.23015 37852 ft 477 kts 314°
2026-05-06 20:55 48.85281 13.16576 37855 ft 476 kts 314°
2026-05-06 20:56 48.90354 13.10097 37853 ft 477 kts 314°
2026-05-06 20:56 48.95413 13.03616 37857 ft 476 kts 314°
2026-05-06 20:57 48.99636 12.98191 37845 ft 476 kts 314°
2026-05-06 20:57 49.05523 12.90609 37843 ft 475 kts 314°
2026-05-06 20:58 49.10568 12.84091 37842 ft 475 kts 314°
2026-05-06 20:58 49.14774 12.78643 37851 ft 474 kts 314°
2026-05-06 20:59 49.19796 12.72121 37843 ft 474 kts 314°
2026-05-06 20:59 49.24806 12.65598 37845 ft 473 kts 314°
2026-05-06 21:00 49.29802 12.59068 37844 ft 471 kts 312°
2026-05-06 21:00 49.33892 12.51489 37847 ft 457 kts 295°
2026-05-06 21:01 49.36401 12.42732 37849 ft 448 kts 284°
2026-05-06 21:01 49.38442 12.33711 37847 ft 448 kts 284°
2026-05-06 21:02 49.40519 12.24657 37850 ft 449 kts 284°
2026-05-06 21:02 49.42620 12.15631 37848 ft 450 kts 284°
2026-05-06 21:03 49.44723 12.06595 37836 ft 450 kts 284°
2026-05-06 21:03 49.46867 11.97522 37821 ft 453 kts 289°
2026-05-06 21:04 49.50155 11.89172 37841 ft 463 kts 302°
2026-05-06 21:04 49.54141 11.81356 37822 ft 465 kts 303°
2026-05-06 21:05 49.58141 11.73535 37820 ft 466 kts 303°
2026-05-06 21:05 49.62130 11.65600 37820 ft 466 kts 303°
2026-05-06 21:06 49.66080 11.57662 37831 ft 467 kts 303°
2026-05-06 21:06 49.70007 11.49735 37826 ft 467 kts 303°
2026-05-06 21:07 49.73949 11.41758 37828 ft 467 kts 303°
2026-05-06 21:07 49.77909 11.33724 37833 ft 468 kts 303°
2026-05-06 21:08 49.81824 11.25760 37824 ft 468 kts 303°
2026-05-06 21:08 49.85761 11.17724 37832 ft 468 kts 303°
2026-05-06 21:09 49.89693 11.09673 37823 ft 467 kts 303°
2026-05-06 21:09 49.93613 11.01623 37829 ft 467 kts 303°
2026-05-06 21:10 49.97500 10.93617 37828 ft 467 kts 303°
2026-05-06 21:10 50.01404 10.85549 37819 ft 467 kts 303°
2026-05-06 21:11 50.05300 10.77476 37825 ft 466 kts 303°
2026-05-06 21:11 50.09055 10.69277 37824 ft 464 kts 299°
2026-05-06 21:12 50.12414 10.60699 37819 ft 463 kts 297°
2026-05-06 21:12 50.15743 10.52099 37825 ft 463 kts 298°
2026-05-06 21:13 50.19115 10.43532 37820 ft 464 kts 298°
2026-05-06 21:13 50.22594 10.35027 37816 ft 466 kts 301°
2026-05-06 21:14 50.26336 10.26724 37821 ft 467 kts 302°
2026-05-06 21:14 50.30084 10.18485 37814 ft 467 kts 302°
2026-05-06 21:15 50.33819 10.10162 37817 ft 468 kts 301°
2026-05-06 21:15 50.37534 10.01797 37816 ft 468 kts 301°
2026-05-06 21:16 50.41256 9.93379 37818 ft 468 kts 301°
2026-05-06 21:16 50.44956 9.84982 37826 ft 469 kts 301°
2026-05-06 21:17 50.48653 9.76570 37819 ft 470 kts 301°
2026-05-06 21:17 50.52367 9.68095 37830 ft 470 kts 301°
2026-05-06 21:18 50.56044 9.59676 37829 ft 470 kts 301°
2026-05-06 21:18 50.59756 9.51149 37826 ft 470 kts 301°
2026-05-06 21:19 50.63430 9.42681 37832 ft 470 kts 301°
2026-05-06 21:19 50.67121 9.34146 37833 ft 469 kts 301°
2026-05-06 21:20 50.70693 9.25873 37831 ft 447 kts 301°
2026-05-06 21:20 50.74175 9.17768 37819 ft 443 kts 301°
2026-05-06 21:20 50.75895 9.13749 37316 ft 448 kts 301°
2026-05-06 21:21 50.77640 9.09671 36825 ft 445 kts 301°
2026-05-06 21:21 50.79360 9.05647 36271 ft 445 kts 301°
2026-05-06 21:21 50.81088 9.01599 35740 ft 444 kts 301°
2026-05-06 21:21 50.82826 8.97520 35183 ft 444 kts 301°
2026-05-06 21:22 50.84618 8.93571 34559 ft 447 kts 304°
2026-05-06 21:22 50.86563 8.89654 33922 ft 450 kts 306°
2026-05-06 21:22 50.88521 8.85836 33181 ft 452 kts 306°
2026-05-06 21:22 50.90520 8.81946 32506 ft 453 kts 306°
2026-05-06 21:23 50.92478 8.78095 31843 ft 453 kts 306°
2026-05-06 21:23 50.94449 8.74174 31214 ft 452 kts 306°
2026-05-06 21:23 50.96389 8.70289 30757 ft 448 kts 306°
2026-05-06 21:23 50.98306 8.66438 30271 ft 445 kts 306°
2026-05-06 21:24 51.00230 8.62588 29780 ft 442 kts 307°
2026-05-06 21:24 51.02364 8.59060 29216 ft 440 kts 316°
2026-05-06 21:24 51.04770 8.56186 28737 ft 438 kts 324°
2026-05-06 21:24 51.07341 8.53544 28237 ft 433 kts 325°
2026-05-06 21:25 51.09845 8.51015 27781 ft 429 kts 325°
2026-05-06 21:25 51.12366 8.48460 27292 ft 425 kts 325°
2026-05-06 21:25 51.14847 8.45917 26815 ft 421 kts 325°
2026-05-06 21:25 51.17277 8.43402 26357 ft 417 kts 325°
2026-05-06 21:26 51.19680 8.40898 25899 ft 414 kts 325°
2026-05-06 21:26 51.22082 8.38384 25437 ft 410 kts 325°
2026-05-06 21:26 51.24448 8.35903 24987 ft 407 kts 325°
2026-05-06 21:26 51.26819 8.33414 24552 ft 404 kts 325°
2026-05-06 21:27 51.29139 8.30977 24098 ft 401 kts 325°
2026-05-06 21:27 51.31478 8.28518 23648 ft 399 kts 325°
2026-05-06 21:27 51.33770 8.26106 23140 ft 397 kts 325°
2026-05-06 21:27 51.36080 8.23675 22640 ft 394 kts 325°
2026-05-06 21:28 51.38367 8.21283 22202 ft 389 kts 325°
2026-05-06 21:28 51.40599 8.18950 21756 ft 386 kts 326°
2026-05-06 21:28 51.42855 8.16583 21312 ft 382 kts 325°
2026-05-06 21:28 51.45049 8.14260 20867 ft 379 kts 325°
2026-05-06 21:29 51.47240 8.11913 20440 ft 375 kts 322°
2026-05-06 21:29 51.49030 8.08939 20002 ft 369 kts 301°
2026-05-06 21:29 51.50035 8.05234 19605 ft 364 kts 283°
2026-05-06 21:29 51.50305 8.01213 19192 ft 361 kts 266°
2026-05-06 21:30 51.49847 7.97263 18787 ft 358 kts 255°
2026-05-06 21:30 51.49158 7.93444 18373 ft 356 kts 254°
2026-05-06 21:30 51.48465 7.89673 17922 ft 355 kts 254°
2026-05-06 21:30 51.47767 7.85853 17460 ft 352 kts 254°
2026-05-06 21:31 51.47096 7.82131 17029 ft 350 kts 255°
2026-05-06 21:31 51.46425 7.78383 16608 ft 347 kts 255°
2026-05-06 21:31 51.45759 7.74661 16196 ft 345 kts 255°
2026-05-06 21:31 51.45107 7.71008 15797 ft 343 kts 255°
2026-05-06 21:32 51.44451 7.67324 15396 ft 341 kts 255°
2026-05-06 21:32 51.43159 7.60071 14613 ft 338 kts 255°
2026-05-06 21:32 51.42507 7.56436 14211 ft 336 kts 255°
2026-05-06 21:33 51.42020 7.52779 13853 ft 333 kts 265°
2026-05-06 21:33 51.41956 7.49129 13615 ft 329 kts 272°
2026-05-06 21:33 51.41993 7.45414 13343 ft 335 kts 272°
2026-05-06 21:33 51.42037 7.41690 13073 ft 339 kts 272°
2026-05-06 21:34 51.42073 7.37884 12815 ft 338 kts 272°
2026-05-06 21:34 51.42099 7.34156 12559 ft 336 kts 272°
2026-05-06 21:34 51.42119 7.30407 12302 ft 333 kts 272°
2026-05-06 21:34 51.42134 7.26743 12057 ft 332 kts 272°
2026-05-06 21:35 51.42148 7.23018 11802 ft 330 kts 272°
2026-05-06 21:35 51.42061 7.19494 11552 ft 330 kts 261°
2026-05-06 21:35 51.41285 7.16038 11334 ft 331 kts 241°
2026-05-06 21:35 51.39873 7.13160 11104 ft 332 kts 227°
2026-05-06 21:36 51.38256 7.10504 10858 ft 330 kts 226°
2026-05-06 21:36 51.36657 7.07936 10608 ft 325 kts 226°
2026-05-06 21:36 51.35066 7.05377 10370 ft 319 kts 226°
2026-05-06 21:36 51.33532 7.02890 10127 ft 314 kts 227°
2026-05-06 21:37 51.32013 7.00410 9900 ft 308 kts 227°
2026-05-06 21:37 51.30560 6.98032 9896 ft 295 kts 227°
2026-05-06 21:37 51.29152 6.95723 9753 ft 287 kts 227°
2026-05-06 21:37 51.27731 6.93388 9318 ft 291 kts 227°
2026-05-06 21:38 51.26327 6.91081 9028 ft 291 kts 227°
2026-05-06 21:38 51.24928 6.88785 8791 ft 287 kts 227°
2026-05-06 21:38 51.23545 6.86518 8575 ft 284 kts 227°
2026-05-06 21:38 51.22167 6.84263 8354 ft 281 kts 227°
2026-05-06 21:39 51.20804 6.82035 8143 ft 277 kts 227°
2026-05-06 21:39 51.19722 6.80046 7960 ft 274 kts 234°
2026-05-06 21:39 51.18593 6.77650 7759 ft 270 kts 235°
2026-05-06 21:39 51.17479 6.75254 7561 ft 267 kts 235°
2026-05-06 21:40 51.16368 6.72885 7379 ft 263 kts 235°
2026-05-06 21:40 51.15284 6.70598 7208 ft 259 kts 235°
2026-05-06 21:40 51.14191 6.68307 7025 ft 256 kts 235°
2026-05-06 21:40 51.13124 6.66077 6843 ft 253 kts 235°
2026-05-06 21:41 51.12058 6.63853 6643 ft 251 kts 235°
2026-05-06 21:41 51.11010 6.61670 6464 ft 249 kts 235°
2026-05-06 21:41 51.09957 6.59476 6268 ft 248 kts 235°
2026-05-06 21:41 51.08915 6.57309 6078 ft 247 kts 235°
2026-05-06 21:42 51.07868 6.55131 5880 ft 246 kts 235°
2026-05-06 21:42 51.06836 6.52988 5698 ft 245 kts 235°
2026-05-06 21:42 51.05793 6.50826 5508 ft 245 kts 234°
2026-05-06 21:42 51.04769 6.48706 5331 ft 245 kts 234°
2026-05-06 21:43 51.03896 6.46392 5126 ft 240 kts 258°
2026-05-06 21:43 51.03880 6.43845 4986 ft 230 kts 290°
2026-05-06 21:43 51.04651 6.41729 4831 ft 223 kts 319°
2026-05-06 21:43 51.05942 6.40384 4678 ft 222 kts 343°
2026-05-06 21:44 51.07447 6.39959 4510 ft 222 kts 358°
2026-05-06 21:44 51.09000 6.39908 4331 ft 221 kts
2026-05-06 21:44 51.10497 6.40190 4135 ft 218 kts 21°
2026-05-06 21:44 51.11766 6.41474 3986 ft 216 kts 42°
2026-05-06 21:45 51.12765 6.43210 3839 ft 215 kts 49°
2026-05-06 21:45 51.13697 6.45078 3675 ft 213 kts 50°
2026-05-06 21:45 51.14287 6.46312 3565 ft 210 kts 51°
2026-05-06 21:45 51.15442 6.48756 3380 ft 203 kts 51°
2026-05-06 21:46 51.16273 6.50519 3232 ft 193 kts 51°
2026-05-06 21:46 51.17056 6.52178 3077 ft 184 kts 51°
2026-05-06 21:46 51.17826 6.53807 3012 ft 181 kts 51°
2026-05-06 21:46 51.18578 6.55397 3012 ft 182 kts 51°
2026-05-06 21:47 51.19351 6.57030 2990 ft 185 kts 51°
2026-05-06 21:47 51.20112 6.58638 2816 ft 179 kts 51°
2026-05-06 21:47 51.20840 6.60179 2579 ft 167 kts 50°
2026-05-06 21:47 51.21493 6.61560 2373 ft 149 kts 50°
2026-05-06 21:48 51.22078 6.62798 2196 ft 134 kts 50°
2026-05-06 21:48 51.22451 6.63583 2068 ft 131 kts 49°
2026-05-06 21:48 51.22991 6.64721 1882 ft 129 kts 49°
2026-05-06 21:48 51.23535 6.65868 1706 ft 128 kts 49°
2026-05-06 21:49 51.24077 6.67009 1533 ft 131 kts 49°
2026-05-06 21:49 51.24634 6.68185 1353 ft 133 kts 49°
2026-05-06 21:49 51.25191 6.69360 1151 ft 134 kts 50°
2026-05-06 21:49 51.25758 6.70556 953 ft 134 kts 50°
2026-05-06 21:50 51.26326 6.71752 751 ft 135 kts 50°
2026-05-06 21:50 51.26892 6.72945 585 ft 137 kts 51°
2026-05-06 21:50 51.27468 6.74159 392 ft 138 kts 51°
2026-05-06 21:50 51.28039 6.75378 195 ft 136 kts 50°
2026-05-06 21:51 51.28594 6.76518 126 ft 118 kts 52°
2026-05-06 21:51 51.28959 6.77293 124 ft 62 kts 53°
2026-05-06 21:51 51.29158 6.77713 133 ft 33 kts 53°
2026-05-06 21:51 51.29261 6.77930 139 ft 19 kts 53°
2026-05-06 21:52 51.29293 6.78104 141 ft 15 kts 105°
2026-05-06 21:52 51.29213 6.78209 136 ft 16 kts 178°
2026-05-06 21:52 51.29128 6.78117 133 ft 12 kts 232°
2026-05-06 21:52 51.29073 6.78002 130 ft 13 kts 233°
2026-05-06 21:53 51.29019 6.77887 128 ft 13 kts 232°
2026-05-06 21:53 51.28965 6.77775 126 ft 13 kts 232°
2026-05-06 21:53 51.28913 6.77667 127 ft 12 kts 232°
2026-05-06 21:53 51.28860 6.77561 127 ft 12 kts 232°
2026-05-06 21:54 51.28811 6.77458 129 ft 12 kts 234°
2026-05-06 21:54 51.28762 6.77351 129 ft 12 kts 234°
2026-05-06 21:54 51.28714 6.77247 127 ft 12 kts 232°
2026-05-06 21:54 51.28666 6.77148 126 ft 11 kts 232°
2026-05-06 21:55 51.28619 6.77048 129 ft 12 kts 233°
2026-05-06 21:55 51.28552 6.76908 127 ft 18 kts 232°
2026-05-06 21:55 51.28476 6.76748 121 ft 18 kts 234°
2026-05-06 21:55 51.28403 6.76594 123 ft 17 kts 232°
2026-05-06 21:56 51.28335 6.76451 121 ft 14 kts 233°
2026-05-06 21:56 51.28279 6.76333 122 ft 13 kts 232°
2026-05-06 21:56 51.28221 6.76240 126 ft 11 kts 197°
2026-05-06 21:56 51.28161 6.76284 126 ft 9 kts 137°
2026-05-06 21:57 51.28127 6.76365 126 ft 8 kts 116°
2026-05-06 21:57 51.28115 6.76448 125 ft 7 kts 97°
2026-05-06 21:57 51.28111 6.76504 126 ft 3 kts 96°
2026-05-06 21:57 51.28110 6.76530 128 ft 2 kts 96°
2026-05-06 21:58 51.28109 6.76534 128 ft 0 kts 96°